GW0207 Weather Reports


Display with metric or nautical units.
time (UTC)temp
F
wind
direction
speed
MPH
gust
MPH
rain 1hr
in
rain 24hr
in
rain mn
in
humidity
%
barometer
mb
20260504081728 46 246 0.0 0.0 0.00 0.00 0.00 82 1016.4
20260504081229 46 246 0.0 0.0 0.00 0.00 0.00 82 1016.5
20260504080729 46 246 0.0 0.0 0.00 0.00 0.00 82 1016.5
20260504080454 46 246 0.0 0.0 0.00 0.00 0.00 81 1016.4
20260504070211 46 266 0.0 0.0 0.00 0.00 0.00 81 1016.4
20260504060154 46 266 0.0 0.0 0.00 0.00 0.00 80 1016.6
20260504050630 47 266 0.0 0.0 0.00 0.00 0.00 77 1016.7
20260504050129 47 266 0.0 0.0 0.00 0.00 0.00 77 1016.7
20260504045629 47 266 0.0 0.0 0.00 0.00 0.00 77 1016.7
20260504045347 47 266 0.0 0.0 0.00 0.00 0.00 76 1016.7
20260504044850 47 266 0.0 0.0 0.00 0.00 0.00 76 1016.7
20260504044129 47 266 0.0 0.0 0.00 0.00 0.00 77 1016.7
20260504043629 47 266 0.0 0.0 0.00 0.00 0.00 77 1016.7
20260504043128 47 266 0.0 0.0 0.00 0.00 0.00 76 1016.7
20260504042629 47 266 0.0 0.0 0.00 0.00 0.00 77 1016.8
20260504042131 47 266 0.0 0.0 0.00 0.00 0.00 76 1016.7
20260504041629 47 266 0.0 0.0 0.00 0.00 0.00 76 1016.7
20260504041129 47 266 0.0 0.0 0.00 0.00 0.00 75 1016.7
20260504040833 47 266 0.0 0.0 0.00 0.00 0.00 74 1016.6
20260504040819 47 266 0.0 0.0 0.00 0.00 0.00 74 1016.6
20260504035625 47 266 0.0 0.0 0.00 0.00 0.00 73 1016.6
20260504035123 47 266 0.0 0.0 0.00 0.00 0.00 73 1016.6
20260504034844 47 266 0.0 0.0 0.00 0.00 0.00 73 1016.7
20260504034348 48 266 0.0 0.0 0.00 0.00 0.00 73 1016.7
20260504033621 48 266 0.0 0.0 0.00 0.00 0.00 74 1016.6
20260504033120 48 266 0.0 0.0 0.00 0.00 0.00 74 1016.6
20260504032617 48 266 0.0 0.0 0.00 0.00 0.00 74 1016.6
20260504032117 48 266 0.0 0.0 0.00 0.00 0.00 74 1016.6
20260504031616 48 266 0.0 0.0 0.00 0.00 0.00 74 1016.6
20260504031115 48 266 0.0 0.0 0.00 0.00 0.00 74 1016.6
20260504030613 49 266 0.0 0.0 0.00 0.00 0.00 74 1016.5
20260504030111 49 266 0.0 0.0 0.00 0.00 0.00 74 1016.5
20260504025609 49 266 0.0 0.0 0.00 0.00 0.00 74 1016.4
20260504025108 49 266 0.0 0.0 0.00 0.00 0.00 73 1016.4
20260504024605 49 266 0.0 0.0 0.00 0.00 0.00 73 1016.4
20260504024103 49 266 0.0 0.0 0.00 0.00 0.00 72 1016.5
20260504023604 49 271 0.0 0.0 0.00 0.00 0.00 73 1016.3
20260504023103 49 308 0.0 0.0 0.00 0.00 0.00 73 1016.4
20260504022603 49 308 0.0 0.0 0.00 0.00 0.00 73 1016.5
20260504022104 49 308 0.0 0.0 0.00 0.00 0.00 72 1016.4
20260504021603 50 308 0.0 0.0 0.00 0.00 0.00 71 1016.4
20260504021101 50 308 0.0 0.0 0.00 0.00 0.00 69 1016.4
20260504020601 50 308 0.0 0.0 0.00 0.00 0.00 69 1016.4
20260504020101 50 308 0.0 0.0 0.00 0.00 0.00 70 1016.4
20260504015600 50 308 0.0 0.0 0.00 0.00 0.00 70 1016.4
20260504015101 50 308 0.0 0.0 0.00 0.00 0.00 69 1016.4
20260504014601 50 308 0.0 0.0 0.00 0.00 0.00 68 1016.4
20260504014101 51 308 0.0 0.0 0.00 0.00 0.00 70 1016.4
20260504013601 51 308 0.0 0.0 0.00 0.00 0.00 68 1016.3
20260504013100 51 308 0.0 0.0 0.00 0.00 0.00 67 1016.2
20260504012602 51 308 0.0 0.0 0.00 0.00 0.00 68 1016.2
20260504012101 51 308 0.0 0.0 0.00 0.00 0.00 67 1016.1
20260504011601 51 308 0.0 0.0 0.00 0.00 0.00 67 1016.1
20260504011322 51 308 0.0 0.0 0.00 0.00 0.00 69 1015.9
20260504010603 51 308 0.0 0.0 0.00 0.00 0.00 66 1015.8
20260504005603 52 308 0.0 0.0 0.00 0.00 0.00 65 1015.7
20260504005103 52 308 0.0 0.0 0.00 0.00 0.00 64 1015.7
20260504004603 53 308 0.0 0.0 0.00 0.00 0.00 62 1015.6
20260504004104 53 308 0.0 0.0 0.00 0.00 0.00 61 1015.5
20260504003604 53 308 0.0 0.0 0.00 0.00 0.00 60 1015.5
20260504003105 54 308 0.0 0.0 0.00 0.00 0.00 60 1015.4
20260504002603 54 308 0.0 0.0 0.00 0.00 0.00 57 1015.5
20260504002104 55 308 0.0 0.0 0.00 0.00 0.00 55 1015.5
20260504001603 55 308 0.0 0.0 0.00 0.00 0.00 55 1015.3
20260504001325 56 308 0.0 0.0 0.00 0.00 0.00 54 1015.2
20260504000604 56 308 0.0 0.0 0.00 0.00 0.00 53 1015.2
20260503235603 58 308 0.0 0.0 0.00 0.00 0.00 54 1015.1
20260503235104 58 308 0.0 0.0 0.00 0.00 0.00 54 1015.2
20260503234828 59 320 0.0 0.0 0.00 0.00 0.00 52 1015.0
20260503234103 59 320 0.0 1.0 0.00 0.00 0.00 51 1015.1
20260503233604 60 320 0.0 1.0 0.00 0.00 0.00 50 1015.1
20260503233101 61 321 0.0 0.0 0.00 0.00 0.00 49 1015.1
20260503232601 61 322 0.0 0.0 0.00 0.00 0.00 47 1015.1
20260503232101 62 322 0.0 0.0 0.00 0.00 0.00 46 1015.1
20260503231601 63 14 0.0 0.0 0.00 0.00 0.00 44 1015.1
20260503231102 63 15 0.0 0.0 0.00 0.00 0.00 40 1015.0
20260503230601 63 357 0.0 0.0 0.00 0.00 0.00 38 1015.0
20260503230100 64 7 0.0 1.0 0.00 0.00 0.00 39 1015.0
20260503225601 64 54 0.0 1.0 0.00 0.00 0.00 38 1015.0
20260503225102 64 359 0.0 0.0 0.00 0.00 0.00 39 1015.0
20260503224601 64 97 0.0 0.0 0.00 0.00 0.00 38 1015.0
20260503224322 64 44 0.0 1.0 0.00 0.00 0.00 38 1015.1
20260503223600 64 102 0.0 1.0 0.00 0.00 0.00 37 1015.1
20260503223101 64 142 0.0 1.0 0.00 0.00 0.00 38 1015.0
20260503222601 64 22 0.0 1.0 0.00 0.00 0.00 36 1015.0
20260503222101 64 357 0.0 1.0 0.00 0.00 0.00 38 1015.0
20260503221600 64 41 0.0 1.0 0.00 0.00 0.00 39 1015.0
20260503221102 64 43 0.0 1.0 0.00 0.00 0.00 36 1014.9
20260503220820 65 44 0.0 1.0 0.00 0.00 0.00 37 1015.0
20260503220100 65 337 0.0 1.0 0.00 0.00 0.00 38 1015.0
20260503215600 65 33 0.0 1.0 0.00 0.00 0.00 37 1015.0
20260503215101 64 38 0.0 1.0 0.00 0.00 0.00 38 1015.0
20260503214822 64 281 0.0 2.0 0.00 0.00 0.00 35 1015.1
20260503214101 65 107 0.0 2.0 0.00 0.00 0.00 37 1015.2
20260503213601 65 118 0.0 1.0 0.00 0.00 0.00 36 1015.2
20260503213101 65 34 0.0 0.0 0.00 0.00 0.00 36 1015.2
20260503212603 65 50 0.0 4.0 0.00 0.00 0.00 36 1015.2
20260503212103 66 12 0.0 4.0 0.00 0.00 0.00 34 1015.2
20260503211823 65 6 0.0 1.0 0.00 0.00 0.00 36 1015.2
20260503211102 65 358 0.0 2.0 0.00 0.00 0.00 35 1015.2
20260503210605 66 9 0.0 2.0 0.00 0.00 0.00 35 1015.3
20260503210559 67 46 0.0 2.0 0.00 0.00 0.00 37 1015.3
20260503205604 67 38 0.0 2.0 0.00 0.00 0.00 35 1015.3
20260503205103 67 184 0.0 6.0 0.00 0.00 0.00 36 1015.3
20260503204602 67 3 0.0 6.0 0.00 0.00 0.00 36 1015.4
20260503204103 67 15 0.0 4.0 0.00 0.00 0.00 38 1015.4
20260503203604 67 6 0.0 4.0 0.00 0.00 0.00 34 1015.4
20260503203103 67 116 0.0 3.0 0.00 0.00 0.00 37 1015.5
20260503202602 67 65 0.0 2.0 0.00 0.00 0.00 36 1015.5
20260503202103 66 10 0.0 1.0 0.00 0.00 0.00 36 1015.5
20260503201603 66 17 0.0 1.0 0.00 0.00 0.00 34 1015.5
20260503201104 66 1 0.0 1.0 0.00 0.00 0.00 36 1015.6
20260503200604 66 41 0.0 3.0 0.00 0.00 0.00 34 1015.7
20260503195603 66 82 0.0 1.0 0.00 0.00 0.00 38 1015.9
20260503195103 66 41 0.0 8.0 0.00 0.00 0.00 36 1015.9
20260503194601 65 40 0.0 8.0 0.00 0.00 0.00 37 1016.0
20260503194326 66 56 0.0 4.0 0.00 0.00 0.00 36 1016.1
20260503193828 65 116 0.0 6.0 0.00 0.00 0.00 40 1016.1
20260503193329 65 107 0.0 6.0 0.00 0.00 0.00 37 1016.1
20260503192602 66 357 0.0 1.0 0.00 0.00 0.00 38 1016.2
20260503192100 66 42 0.0 1.0 0.00 0.00 0.00 37 1016.2
20260503191601 66 90 0.0 2.0 0.00 0.00 0.00 39 1016.5
20260503191101 65 31 0.0 5.0 0.00 0.00 0.00 35 1016.5
20260503190601 65 356 0.0 5.0 0.00 0.00 0.00 35 1016.6
20260503190101 65 38 0.0 4.0 0.00 0.00 0.00 36 1016.6
20260503185601 65 172 0.0 1.0 0.00 0.00 0.00 40 1016.6
20260503185101 64 296 0.0 4.0 0.00 0.00 0.00 37 1016.7
20260503184601 64 8 0.0 5.0 0.00 0.00 0.00 37 1016.8
20260503184101 64 13 0.0 5.0 0.00 0.00 0.00 39 1016.9
20260503183601 64 306 0.0 4.0 0.00 0.00 0.00 36 1016.9
20260503183101 64 304 0.0 4.0 0.00 0.00 0.00 38 1016.8
20260503182602 64 357 0.0 4.0 0.00 0.00 0.00 39 1017.0
20260503182101 64 36 0.0 3.0 0.00 0.00 0.00 40 1017.0
20260503181602 64 95 0.0 3.0 0.00 0.00 0.00 39 1017.0
20260503181101 64 277 0.0 3.0 0.00 0.00 0.00 39 1017.1
20260503180601 63 266 0.0 3.0 0.00 0.00 0.00 38 1017.1
20260503175601 63 307 0.0 4.0 0.00 0.00 0.00 39 1017.3
20260503175100 62 349 0.0 3.0 0.00 0.00 0.00 40 1017.4
20260503174601 62 195 0.0 5.0 0.00 0.00 0.00 38 1017.5
20260503174101 62 151 1.0 5.0 0.00 0.00 0.00 40 1017.5
20260503173601 62 30 0.0 5.0 0.00 0.00 0.00 40 1017.5
20260503173100 62 293 0.0 4.0 0.00 0.00 0.00 43 1017.4
20260503172815 62 1 0.0 5.0 0.00 0.00 0.00 42 1017.5
20260503172800 62 218 0.0 3.0 0.00 0.00 0.00 42 1017.5
20260503171601 62 333 0.0 5.0 0.00 0.00 0.00 43 1017.7
20260503171101 62 5 0.0 3.0 0.00 0.00 0.00 43 1017.6
20260503170601 61 64 0.0 4.0 0.00 0.00 0.00 43 1017.7
20260503170326 61 15 0.0 4.0 0.00 0.00 0.00 41 1017.8
20260503150605 57 351 0.0 4.0 0.00 0.03 0.00 46 1018.8
20260503150327 57 80 0.0 6.0 0.00 0.03 0.00 47 1018.8
20260503140104 55 303 0.0 7.0 0.00 0.07 0.00 56 1018.6
20260503131100 52 87 0.0 5.0 0.00 0.12 0.00 65 1018.6
20260503130601 52 127 0.0 5.0 0.00 0.12 0.00 65 1018.7
20260503110602 38 202 0.0 0.0 0.00 0.16 0.00 89 1017.1
20260503100103 39 354 0.0 0.0 0.00 0.17 0.00 87 1016.3